When you browse on this site, cookies collect data to enhance your experience and personalize the content and advertising you see.
Visit our Privacy Policy to learn more. By continuing to use the site, you agree to this use of cookies and data.
  • In United Kingdom
  • List of Countries
  • For 7 days
  • Water Temperature
  • Satellite Maps
  • Weather Map
  • Weather Widgets
  • user-avatar
    Login

    Hourly Weather Burshtyn

    Today, 9 December, Sunday

    Time Temperature Precipitation Wind Pressure Humidity
    00:00 +2°C° 0 mm 2 mps 734 mmHg 89%
    01:00 +2°C° 0 mm 2 mps 734 mmHg 89%
    02:00 +2°C° 0 mm 1 mps 733 mmHg 90%
    03:00 +1°C° 0 mm 1 mps 733 mmHg 89%
    04:00 -1°C° 0 mm 2 mps 732 mmHg 88%
    05:00 -1°C° 0 mm 3 mps 732 mmHg 88%
    06:00 -1°C° 0 mm 3 mps 732 mmHg 87%
    07:00 0°C° 0 mm 3 mps 732 mmHg 86%
    08:00 -1°C° 0 mm 3 mps 731 mmHg 85%
    09:00 0°C° 0 mm 3 mps 731 mmHg 83%
    10:00 0°C° 0 mm 4 mps 730 mmHg 80%
    11:00 +2°C° 0 mm 5 mps 730 mmHg 78%
    12:00 +2°C° 0 mm 5 mps 729 mmHg 77%
    13:00 +2°C° 0 mm 5 mps 729 mmHg 76%
    14:00 +3°C° 0 mm 4 mps 728 mmHg 79%
    15:00 +3°C° 0.1 mm 4 mps 728 mmHg 79%
    16:00 +3°C° 0.1 mm 4 mps 728 mmHg 79%
    17:00 +1°C° 0.1 mm 4 mps 728 mmHg 80%
    18:00 +1°C° 0.2 mm 4 mps 728 mmHg 81%
    19:00 +1°C° 0.2 mm 4 mps 728 mmHg 81%
    20:00 +1°C° 0.2 mm 4 mps 728 mmHg 82%
    21:00 +2°C° 0.1 mm 3 mps 728 mmHg 82%
    22:00 +2°C° 0.1 mm 3 mps 728 mmHg 81%
    23:00 +2°C° 0.1 mm 3 mps 728 mmHg 81%

    Tomorrow, 10 December, Monday

    Time Temperature Precipitation Wind Pressure Humidity
    00:00 +2°C° 0 mm 3 mps 728 mmHg 82%
    01:00 +2°C° 0 mm 3 mps 728 mmHg 83%
    02:00 +2°C° 0 mm 3 mps 729 mmHg 83%
    03:00 +3°C° 0.1 mm 2 mps 729 mmHg 83%
    04:00 +3°C° 0.1 mm 2 mps 729 mmHg 84%
    05:00 +3°C° 0.1 mm 2 mps 729 mmHg 84%
    06:00 +3°C° 0.1 mm 2 mps 729 mmHg 85%
    07:00 +2°C° 0.1 mm 2 mps 729 mmHg 85%
    08:00 +2°C° 0.1 mm 2 mps 729 mmHg 86%
    09:00 +3°C° 0.4 mm 2 mps 729 mmHg 86%
    10:00 +2°C° 0.4 mm 3 mps 729 mmHg 87%
    11:00 +2°C° 0.4 mm 3 mps 730 mmHg 87%
    12:00 +3°C° 0.3 mm 3 mps 730 mmHg 86%
    13:00 +3°C° 0.3 mm 3 mps 730 mmHg 85%
    14:00 +3°C° 0.3 mm 4 mps 730 mmHg 84%
    15:00 +3°C° 0.1 mm 3 mps 731 mmHg 85%
    16:00 +2°C° 0.1 mm 3 mps 731 mmHg 86%
    17:00 +2°C° 0.1 mm 3 mps 732 mmHg 87%
    18:00 +1°C° 0.1 mm 3 mps 732 mmHg 88%
    19:00 +1°C° 0.1 mm 3 mps 732 mmHg 88%
    20:00 0°C° 0.1 mm 4 mps 732 mmHg 89%
    21:00 -1°C° 0 mm 4 mps 733 mmHg 89%
    22:00 0°C° 0 mm 3 mps 733 mmHg 88%
    23:00 -1°C° 0 mm 3 mps 733 mmHg 88%

    Day after tomorrow, 11 December, Tuesday

    Time Temperature Precipitation Wind Pressure Humidity
    00:00 -1°C° 0 mm 3 mps 734 mmHg 89%
    01:00 -1°C° 0 mm 3 mps 734 mmHg 89%
    02:00 -2°C° 0 mm 3 mps 734 mmHg 90%
    03:00 -2°C° 0 mm 3 mps 734 mmHg 90%
    04:00 -2°C° 0 mm 3 mps 734 mmHg 90%
    05:00 -2°C° 0 mm 3 mps 734 mmHg 90%
    06:00 -2°C° 0 mm 2 mps 734 mmHg 90%
    07:00 -2°C° 0 mm 2 mps 735 mmHg 90%
    08:00 -2°C° 0 mm 2 mps 735 mmHg 90%
    09:00 -2°C° 0 mm 2 mps 735 mmHg 86%
    10:00 -1°C° 0 mm 2 mps 736 mmHg 83%
    11:00 +1°C° 0 mm 2 mps 736 mmHg 79%
    12:00 +3°C° 0 mm 1 mps 736 mmHg 76%
    13:00 +3°C° 0 mm 1 mps 736 mmHg 74%
    14:00 +3°C° 0 mm 1 mps 736 mmHg 72%
    15:00 +2°C° 0 mm 1 mps 736 mmHg 75%
    16:00 +2°C° 0 mm 1 mps 736 mmHg 79%
    17:00 +1°C° 0 mm 1 mps 736 mmHg 82%
    18:00 0°C° 0 mm 1 mps 737 mmHg 83%
    19:00 0°C° 0 mm 1 mps 737 mmHg 83%
    20:00 0°C° 0 mm 1 mps 737 mmHg 84%
    21:00 0°C° 0 mm 1 mps 737 mmHg 83%
    22:00 0°C° 0 mm 1 mps 737 mmHg 83%
    23:00 0°C° 0 mm 1 mps 737 mmHg 83%

    12 December, Wednesday

    Time Temperature Precipitation Wind Pressure Humidity
    00:00 0°C° 0 mm 1 mps 737 mmHg 82%
    01:00 0°C° 0 mm 1 mps 737 mmHg 82%
    02:00 0°C° 0 mm 1 mps 738 mmHg 82%
    03:00 -1°C° 0 mm 1 mps 738 mmHg 81%
    04:00 -1°C° 0 mm 1 mps 738 mmHg 81%
    05:00 -1°C° 0 mm 1 mps 738 mmHg 81%
    06:00 -1°C° 0 mm 1 mps 738 mmHg 80%
    07:00 -1°C° 0 mm 1 mps 738 mmHg 80%
    08:00 -2°C° 0 mm 0 mps 738 mmHg 80%
    09:00 0°C° 0 mm 1 mps 738 mmHg 77%
    10:00 +1°C° 0 mm 1 mps 738 mmHg 75%
    11:00 +1°C° 0 mm 1 mps 738 mmHg 72%
    12:00 +2°C° 0 mm 1 mps 738 mmHg 73%
    13:00 +1°C° 0 mm 2 mps 738 mmHg 73%
    14:00 +1°C° 0 mm 2 mps 738 mmHg 73%
    15:00 -1°C° 0 mm 2 mps 738 mmHg 77%
    16:00 -1°C° 0 mm 2 mps 738 mmHg 82%
    17:00 -2°C° 0 mm 2 mps 738 mmHg 86%
    18:00 -2°C° 0 mm 3 mps 738 mmHg 87%
    19:00 -2°C° 0 mm 3 mps 738 mmHg 87%
    20:00 -3°C° 0 mm 4 mps 738 mmHg 88%
    21:00 -3°C° 0 mm 4 mps 738 mmHg 89%
    22:00 -3°C° 0 mm 4 mps 738 mmHg 89%
    23:00 -4°C° 0 mm 5 mps 738 mmHg 90%

    13 December, Thursday

    Time Temperature Precipitation Wind Pressure Humidity
    00:00 -4°C° 0.1 mm 5 mps 738 mmHg 89%
    01:00 -4°C° 0.1 mm 5 mps 738 mmHg 88%
    02:00 -4°C° 0.1 mm 6 mps 738 mmHg 88%
    03:00 -4°C° 0.2 mm 6 mps 738 mmHg 88%
    04:00 -4°C° 0.2 mm 6 mps 738 mmHg 87%
    05:00 -4°C° 0.2 mm 6 mps 738 mmHg 87%
    06:00 -4°C° 0.3 mm 6 mps 738 mmHg 87%
    07:00 -4°C° 0.3 mm 6 mps 738 mmHg 88%
    08:00 -4°C° 0.3 mm 6 mps 738 mmHg 88%
    09:00 -4°C° 0.3 mm 6 mps 738 mmHg 88%
    10:00 -4°C° 0.3 mm 6 mps 738 mmHg 87%
    11:00 -3°C° 0.3 mm 6 mps 738 mmHg 87%
    12:00 -3°C° 0.3 mm 6 mps 738 mmHg 87%
    13:00 -3°C° 0.3 mm 6 mps 738 mmHg 87%
    14:00 -3°C° 0.3 mm 6 mps 738 mmHg 87%
    15:00 -3°C° 0.3 mm 6 mps 738 mmHg 88%
    16:00 -3°C° 0.3 mm 6 mps 738 mmHg 89%
    17:00 -4°C° 0.3 mm 5 mps 738 mmHg 90%
    18:00 -4°C° 0.2 mm 5 mps 738 mmHg 91%
    19:00 -4°C° 0.2 mm 5 mps 738 mmHg 91%
    20:00 -4°C° 0.2 mm 5 mps 738 mmHg 91%
    21:00 -3°C° 0.3 mm 4 mps 738 mmHg 92%
    22:00 -3°C° 0.3 mm 4 mps 738 mmHg 92%
    23:00 -3°C° 0.3 mm 4 mps 738 mmHg 92%

    14 December, Friday

    Time Temperature Precipitation Wind Pressure Humidity
    00:00 -3°C° 0.3 mm 4 mps 738 mmHg 93%
    01:00 -2°C° 0.3 mm 3 mps 738 mmHg 93%
    02:00 -2°C° 0.3 mm 3 mps 738 mmHg 93%
    03:00 -2°C° 0.2 mm 3 mps 738 mmHg 94%
    04:00 -2°C° 0.2 mm 3 mps 738 mmHg 94%
    05:00 -2°C° 0.2 mm 3 mps 738 mmHg 94%
    06:00 -2°C° 0.1 mm 3 mps 739 mmHg 94%
    07:00 -2°C° 0.1 mm 2 mps 739 mmHg 95%
    08:00 -2°C° 0.1 mm 2 mps 739 mmHg 95%
    09:00 -2°C° 0.1 mm 2 mps 739 mmHg 93%
    10:00 -2°C° 0.1 mm 2 mps 739 mmHg 92%
    11:00 -1°C° 0.1 mm 2 mps 740 mmHg 91%
    12:00 -1°C° 0.1 mm 2 mps 740 mmHg 90%
    13:00 -1°C° 0.1 mm 2 mps 739 mmHg 89%
    14:00 -1°C° 0.1 mm 2 mps 739 mmHg 88%
    15:00 -2°C° 0 mm 2 mps 739 mmHg 90%
    16:00 -2°C° 0 mm 2 mps 739 mmHg 92%
    17:00 -3°C° 0 mm 2 mps 739 mmHg 93%
    18:00 -1°C° 0 mm 1 mps 740 mmHg 94%
    19:00 -1°C° 0 mm 1 mps 740 mmHg 94%
    20:00 -1°C° 0 mm 1 mps 740 mmHg 94%
    21:00 -2°C° 0 mm 1 mps 740 mmHg 95%
    22:00 -2°C° 0 mm 1 mps 740 mmHg 95%
    23:00 -2°C° 0 mm 1 mps 740 mmHg 95%
    Show more